User: anonymous   Login
Location: Newark
(52.4787°S, 179.0532°W)
Time: 07:06:49
(UTC+00:00)
Language:

Transit 2A - Orbit

View from above orbital plane
View from above orbital plane
View from above satellite
View from above satellite

Ground track
Ground track

The orbit data is extracted from the following two-line orbital elements,

1    45U 60007A   19323.90793716 -.00000035 +00000-0 +17991-4 0  9992
2    45 066.6947 215.7329 0248530 109.4897 253.3231 14.33656188035651
Epoch (UTC): 19 November 2019 21:47:25
Eccentricity: 0.0248530
inclination: 66.6947°
perigee height: 601 km
apogee height: 957 km
right ascension of ascending node: 215.7329°
argument of perigee: 109.4897°
revolutions per day: 14.33656188
mean anomaly at epoch: 253.3231°
orbit number at epoch: 3565

The dashed part of the orbit path shows where the satellite is in the earth's shadow,  

DLR